[Date Prev][Date Next][Thread Prev][Thread Next] - [Date Index][Thread Index][Author Index]

2 Line ISS Keps 6-22



ISS
1 25544U 98067A   02173.78990507  .00019824  00000-0  26501-3 0  5894
2 25544  51.6390  24.8131 0007068 269.1529 194.7803 15.58016477204901


----
Via the sarex mailing list at AMSAT.ORG courtesy of AMSAT-NA.
To unsubscribe, send "unsubscribe sarex" to Majordomo@amsat.org



AMSAT Top AMSAT Home